IN3XSV Weather Reports


Display with metric or nautical units.
time (UTC)temp
F
wind
direction
speed
MPH
gust
MPH
rain 1hr
in
rain 24hr
in
rain mn
in
humidity
%
barometer
mb
20260507113836 59 337 0.0 6.0 3.20 3.20 0.00 69 1006.3
20260507113336 60 337 0.0 9.0 1.59 1.59 0.00 66 1006.1
20260507112836 62 315 0.0 10.0 0.02 0.02 0.00 62 1005.9
20260507112522 64 292 0.0 3.0 0.00 0.00 0.00 58 1005.7
20260507112336 64 292 0.0 3.0 0.00 0.00 0.00 58 1005.7
20260507111836 65 337 0.0 0.0 0.00 0.00 0.00 57 1005.6
20260507111338 65 180 0.0 0.0 0.00 0.00 0.00 57 1005.6
20260507110836 65 67 0.0 4.0 0.00 0.00 0.00 55 1005.7
20260507110336 65 112 0.0 11.0 0.00 0.00 0.00 55 1005.7
20260507105836 66 90 4.0 7.0 0.00 0.00 0.00 56 1005.7
20260507105336 66 135 0.0 5.0 0.00 0.00 0.00 57 1005.6
20260507104836 65 157 0.0 5.0 0.00 0.00 0.00 56 1005.6
20260507104510 65 45 0.0 3.0 0.00 0.00 0.00 55 1005.7
20260507104336 65 45 0.0 3.0 0.00 0.00 0.00 55 1005.7
20260507103836 64 90 0.0 3.0 0.00 0.00 0.00 57 1005.8
20260507103336 64 67 0.0 0.0 0.00 0.00 0.00 56 1006.0
20260507102836 64 112 0.0 7.0 0.00 0.00 0.00 58 1005.9
20260507102336 64 135 7.0 9.0 0.00 0.00 0.00 58 1005.8
20260507101836 64 112 0.0 6.0 0.00 0.00 0.00 59 1005.9
20260507101336 64 45 0.0 0.0 0.00 0.00 0.00 58 1006.0
20260507100836 64 67 0.0 4.0 0.00 0.00 0.00 59 1006.1
20260507100336 63 45 0.0 0.0 0.00 0.00 0.00 60 1006.1
20260507095836 62 337 0.0 0.0 0.00 0.00 0.00 63 1006.1
20260507095336 62 315 0.0 2.0 0.00 0.00 0.00 62 1006.3
20260507094836 62 45 0.0 0.0 0.00 0.00 0.00 61 1006.2
20260507094336 61 337 0.0 0.0 0.00 0.00 0.00 61 1006.3
20260507093836 61 22 0.0 2.0 0.00 0.00 0.00 60 1006.3
20260507093336 61 22 0.0 0.0 0.00 0.00 0.00 61 1006.3
20260507092836 62 0 0.0 0.0 0.00 0.00 0.00 64 1006.3
20260507092336 61 67 0.0 5.0 0.00 0.00 0.00 67 1006.3
20260507091836 61 45 0.0 0.0 0.00 0.00 0.00 70 1006.4
20260507091336 60 315 0.0 0.0 0.00 0.00 0.00 69 1006.5
20260507090836 60 112 0.0 1.0 0.00 0.00 0.00 70 1006.6
20260507090336 60 315 1.0 2.0 0.00 0.00 0.00 71 1006.3
20260507085836 60 67 0.0 0.0 0.00 0.00 0.00 71 1006.4
20260507085336 59 45 0.0 0.0 0.00 0.00 0.00 71 1006.5
20260507084836 59 22 0.0 0.0 0.00 0.00 0.00 72 1006.7
20260507084336 60 67 0.0 2.0 0.00 0.00 0.00 74 1006.7
20260507083836 59 90 1.0 1.0 0.00 0.00 0.00 76 1006.6
20260507083336 59 45 0.0 0.0 0.00 0.00 0.00 77 1006.6
20260507082836 58 292 0.0 0.0 0.00 0.00 0.00 77 1006.6
20260507082336 59 337 0.0 0.0 0.00 0.00 0.00 77 1006.7
20260507081836 57 0 0.0 0.0 0.00 0.00 0.00 79 1006.8
20260507081535 57 0 0.0 0.0 0.00 0.00 0.00 78 1006.7
20260507081337 57 0 0.0 0.0 0.00 0.00 0.00 78 1006.7
20260507080836 56 135 0.0 0.0 0.00 0.00 0.00 79 1006.7
20260507080336 56 135 0.0 0.0 0.00 0.00 0.00 79 1006.8
20260507075836 55 157 0.0 0.0 0.00 0.00 0.00 79 1006.7
20260507075336 55 135 0.0 0.0 0.00 0.00 0.00 79 1006.8
20260507074836 54 45 0.0 0.0 0.00 0.00 0.00 79 1006.7
20260507074336 53 67 0.0 0.0 0.00 0.00 0.00 78 1006.7
20260507073836 53 90 0.0 0.0 0.00 0.00 0.00 79 1006.7
20260507073337 53 157 0.0 0.0 0.00 0.00 0.00 78 1006.8
20260507072836 52 90 0.0 0.0 0.00 0.00 0.00 78 1006.7
20260507072409 51 45 0.0 0.0 0.00 0.00 0.00 78 1006.6
20260507072337 51 45 0.0 0.0 0.00 0.00 0.00 78 1006.6
20260507071837 50 135 0.0 0.0 0.00 0.00 0.00 78 1006.7
20260507071337 50 292 0.0 0.0 0.00 0.00 0.00 78 1006.6
20260507070837 50 22 0.0 0.0 0.00 0.00 0.00 78 1006.7
20260507070419 49 45 0.0 0.0 0.00 0.00 0.00 78 1006.7
20260507070337 49 45 0.0 0.0 0.00 0.00 0.00 78 1006.7
20260507065837 49 0 0.0 0.0 0.00 0.00 0.00 78 1006.7
20260507065337 49 22 0.0 0.0 0.00 0.00 0.00 77 1006.6
20260507064837 48 67 0.0 0.0 0.00 0.00 0.00 77 1006.6
20260507064337 48 45 0.0 0.0 0.00 0.00 0.00 76 1006.6
20260507063837 47 90 0.0 0.0 0.00 0.00 0.00 75 1006.6
20260507063337 46 67 0.0 0.0 0.00 0.00 0.00 76 1006.7
20260507062837 46 337 0.0 0.0 0.00 0.00 0.00 76 1006.7
20260507062337 45 292 0.0 0.0 0.00 0.00 0.00 76 1006.7
20260507061837 45 157 0.0 0.0 0.00 0.00 0.00 76 1006.7
20260507061337 45 157 0.0 0.0 0.00 0.00 0.00 75 1006.6
20260507060837 45 157 0.0 0.0 0.00 0.00 0.00 75 1006.7
20260507060337 45 157 0.0 0.0 0.00 0.00 0.00 75 1006.6
20260507055837 45 157 0.0 0.0 0.00 0.00 0.00 75 1006.6
20260507055337 45 135 0.0 0.0 0.00 0.00 0.00 75 1006.6
20260507054837 44 157 0.0 0.0 0.00 0.00 0.00 75 1006.6
20260507054337 44 157 0.0 1.0 0.00 0.00 0.00 75 1006.7
20260507053837 44 157 0.0 0.0 0.00 0.00 0.00 75 1006.5
20260507053337 44 180 0.0 0.0 0.00 0.00 0.00 75 1006.6
20260507052837 44 157 0.0 0.0 0.00 0.00 0.00 75 1006.5
20260507052337 44 112 0.0 2.0 0.00 0.00 0.00 75 1006.5
20260507051837 44 90 0.0 2.0 0.00 0.00 0.00 75 1006.5
20260507051337 43 90 0.0 0.0 0.00 0.00 0.00 75 1006.4
20260507050837 43 90 0.0 0.0 0.00 0.00 0.00 75 1006.4
20260507050337 43 67 0.0 0.0 0.00 0.00 0.00 75 1006.4
20260507045837 43 67 0.0 0.0 0.00 0.00 0.00 75 1006.4
20260507045337 43 67 0.0 0.0 0.00 0.00 0.00 75 1006.3
20260507044837 43 112 0.0 0.0 0.00 0.00 0.00 76 1006.2
20260507044337 43 135 0.0 0.0 0.00 0.00 0.00 76 1006.0
20260507043837 43 135 0.0 0.0 0.00 0.00 0.00 76 1006.0
20260507043337 42 135 0.0 0.0 0.00 0.00 0.00 76 1005.8
20260507042837 42 135 0.0 0.0 0.00 0.00 0.00 76 1005.9
20260507042337 43 135 0.0 0.0 0.00 0.00 0.00 76 1005.8
20260507041837 43 135 0.0 0.0 0.00 0.00 0.00 76 1005.8
20260507041337 43 112 0.0 0.0 0.00 0.00 0.00 76 1005.7
20260507040837 43 67 0.0 0.0 0.00 0.00 0.00 76 1005.8
20260507040441 42 90 0.0 0.0 0.00 0.00 0.00 76 1005.7
20260507040337 42 90 0.0 0.0 0.00 0.00 0.00 76 1005.7
20260507035837 42 135 0.0 0.0 0.00 0.00 0.00 76 1005.8
20260507035337 42 135 0.0 0.0 0.00 0.00 0.00 76 1005.7
20260507034837 42 135 0.0 0.0 0.00 0.00 0.00 76 1005.7
20260507034421 42 67 0.0 0.0 0.00 0.00 0.00 77 1005.7
20260507034337 42 67 0.0 0.0 0.00 0.00 0.00 77 1005.7
20260507033837 42 67 0.0 0.0 0.00 0.00 0.00 77 1005.7
20260507033337 42 90 0.0 0.0 0.00 0.00 0.00 77 1005.7
20260507032837 42 90 0.0 0.0 0.00 0.00 0.00 77 1005.6
20260507032337 42 90 0.0 0.0 0.00 0.00 0.00 77 1005.6
20260507031837 42 90 0.0 0.0 0.00 0.00 0.00 77 1005.6
20260507031337 42 90 0.0 0.0 0.00 0.00 0.00 77 1005.6
20260507030909 42 135 0.0 0.0 0.00 0.00 0.00 77 1005.6
20260507030837 42 135 0.0 0.0 0.00 0.00 0.00 77 1005.6
20260507030337 42 135 0.0 0.0 0.00 0.00 0.00 77 1005.6
20260507025837 42 135 0.0 0.0 0.00 0.00 0.00 77 1005.6
20260507025337 42 135 0.0 0.0 0.00 0.00 0.00 77 1005.6
20260507024837 42 135 0.0 0.0 0.00 0.00 0.00 77 1005.6
20260507024337 42 135 0.0 0.0 0.00 0.00 0.00 77 1005.6
20260507023922 42 135 0.0 0.0 0.00 0.00 0.00 77 1005.5
20260507023837 42 135 0.0 0.0 0.00 0.00 0.00 77 1005.5
20260507023337 42 135 0.0 0.0 0.00 0.00 0.00 77 1005.5
20260507022937 42 67 0.0 0.0 0.00 0.00 0.00 77 1005.6
20260507022837 42 67 0.0 0.0 0.00 0.00 0.00 77 1005.6
20260507022337 42 67 0.0 0.0 0.00 0.00 0.00 77 1005.5
20260507021837 42 67 0.0 0.0 0.00 0.00 0.00 77 1005.6
20260507021337 42 67 0.0 0.0 0.00 0.00 0.00 77 1005.6
20260507020837 42 67 0.0 0.0 0.00 0.00 0.00 77 1005.5
20260507020337 42 67 0.0 0.0 0.00 0.00 0.00 77 1005.6
20260507015837 42 67 0.0 0.0 0.00 0.00 0.00 77 1005.5
20260507015337 42 67 0.0 0.0 0.00 0.00 0.00 77 1005.3
20260507014914 42 67 0.0 0.0 0.00 0.00 0.00 78 1005.2
20260507014837 42 67 0.0 0.0 0.00 0.00 0.00 78 1005.2
20260507014337 42 67 0.0 0.0 0.00 0.00 0.00 78 1005.3
20260507013911 43 135 0.0 0.0 0.00 0.00 0.00 77 1005.3
20260507013837 43 135 0.0 0.0 0.00 0.00 0.00 77 1005.3
20260507013337 42 157 0.0 0.0 0.00 0.00 0.00 77 1005.5
20260507012837 42 157 0.0 0.0 0.00 0.00 0.00 77 1005.6
20260507012337 42 135 0.0 0.0 0.00 0.00 0.00 77 1005.5
20260507011837 42 67 0.0 0.0 0.00 0.00 0.00 78 1005.5
20260507011337 43 67 0.0 0.0 0.00 0.00 0.00 78 1005.5
20260507010837 43 135 0.0 0.0 0.00 0.00 0.00 77 1005.4
20260507010338 43 135 0.0 0.0 0.00 0.00 0.00 77 1005.6
20260507005837 43 135 0.0 0.0 0.00 0.00 0.00 77 1005.5
20260507005548 43 112 0.0 0.0 0.00 0.00 0.00 78 1005.5
20260507005337 43 112 0.0 0.0 0.00 0.00 0.00 78 1005.5
20260507004837 43 112 0.0 0.0 0.00 0.00 0.00 78 1005.4
20260507004337 43 67 0.0 0.0 0.00 0.00 0.00 78 1005.5
20260507003837 44 67 0.0 0.0 0.00 0.00 0.00 78 1005.5
20260507003337 44 135 0.0 0.0 0.00 0.00 0.00 77 1005.5
20260507002837 44 135 0.0 0.0 0.00 0.00 0.00 77 1005.4
20260507002337 44 135 0.0 0.0 0.00 0.00 0.00 77 1005.4
20260507001837 44 135 0.0 0.0 0.00 0.00 0.00 77 1005.4
20260507001337 44 135 0.0 0.0 0.00 0.00 0.00 77 1005.4
20260507000837 45 135 0.0 0.0 0.00 0.00 0.00 77 1005.3
20260507000428 44 45 0.0 0.0 0.00 0.00 0.00 77 1005.3
20260507000337 44 45 0.0 0.0 0.00 0.00 0.00 77 1005.3
20260506235837 44 22 0.0 0.0 0.00 0.00 0.00 78 1005.4
20260506235337 44 22 0.0 0.0 0.00 0.00 0.00 78 1005.3
20260506234915 45 22 0.0 0.0 0.00 0.00 0.00 78 1005.3
20260506234837 45 22 0.0 0.0 0.00 0.00 0.00 78 1005.3
20260506234337 45 45 0.0 0.0 0.00 0.00 0.00 78 1005.2
20260506233837 46 90 0.0 0.0 0.00 0.00 0.00 78 1005.1
20260506233337 46 90 0.0 0.0 0.00 0.00 0.00 78 1005.2
20260506232837 46 90 0.0 0.0 0.00 0.00 0.00 78 1005.2
20260506232337 46 90 0.0 0.0 0.00 0.00 0.00 78 1005.2
20260506231838 46 90 0.0 0.0 0.00 0.00 0.00 78 1005.2
20260506231337 46 90 0.0 0.0 0.00 0.00 0.00 78 1005.3
20260506230837 46 90 0.0 0.0 0.00 0.00 0.00 78 1005.2
20260506230337 46 135 0.0 0.0 0.00 0.00 0.00 78 1005.3
20260506225837 46 135 0.0 0.0 0.00 0.00 0.00 78 1005.3
20260506225337 47 135 0.0 0.0 0.00 0.00 0.00 78 1005.2
20260506224837 47 135 0.0 0.0 0.00 0.00 0.00 78 1005.2
20260506224337 47 135 0.0 0.0 0.00 0.00 0.00 78 1005.3
20260506223837 47 67 0.0 0.0 0.00 0.00 0.00 78 1005.3
20260506223337 47 90 0.0 0.0 0.00 0.00 0.00 78 1005.3
20260506222837 47 67 0.0 0.0 0.00 0.00 0.00 78 1005.3
20260506222337 47 90 0.0 0.0 0.00 0.00 0.00 78 1005.3
20260506221837 48 90 0.0 0.0 0.00 0.00 0.00 78 1005.3
20260506221337 48 67 0.0 0.0 0.00 0.00 0.00 78 1005.7
20260506220837 48 135 0.0 0.0 0.00 0.00 0.00 78 1005.7
20260506220337 48 157 0.0 0.0 0.00 0.00 0.00 78 1005.7
20260506215837 49 135 0.0 0.0 0.00 0.00 0.00 78 1005.7
20260506215337 49 112 0.0 0.0 0.00 2.97 0.00 78 1005.2
20260506214837 49 112 0.0 0.0 0.00 2.97 0.00 78 1005.1
20260506214337 49 135 0.0 0.0 0.00 2.97 0.00 78 1005.3
20260506213838 49 135 0.0 0.0 0.00 2.97 0.00 78 1005.3
20260506213338 49 112 0.0 0.0 0.00 2.97 0.00 78 1005.2
20260506212838 50 112 0.0 0.0 0.00 2.97 0.00 78 1005.1
20260506212338 50 135 0.0 0.0 0.00 2.97 0.00 78 1005.2
20260506211838 50 135 0.0 0.0 0.00 2.97 0.00 78 1005.2
20260506211338 50 67 0.0 3.0 0.00 2.97 0.00 78 1005.3
20260506210838 50 67 3.0 6.0 0.00 2.97 0.00 78 1005.1
20260506210338 50 67 0.0 6.0 0.00 2.97 0.00 79 1005.1
20260506205838 51 45 0.0 6.0 0.00 2.97 0.00 79 1005.0
20260506205338 51 45 7.0 8.0 0.00 2.97 0.00 79 1004.9
20260506204838 -13 67 0.0 3.0 0.00 2.97 0.00 79 1005.1
20260506204338 51 112 0.0 6.0 0.00 2.97 0.00 79 1004.9
20260506203838 51 112 3.0 7.0 0.00 2.97 0.00 79 1004.7
20260506203338 51 135 3.0 6.0 0.00 2.97 0.00 79 1004.7
20260506202838 51 135 0.0 8.0 0.00 2.97 0.00 79 1004.8
20260506202338 52 112 4.0 7.0 0.00 2.97 0.00 79 1004.8
20260506201838 52 135 7.0 10.0 0.00 2.97 0.00 79 1004.8
20260506201338 52 157 7.0 7.0 0.00 2.97 0.00 79 1004.7
20260506200838 52 112 0.0 3.0 0.00 2.97 0.00 79 1004.7
20260506200338 52 90 0.0 4.0 0.00 2.97 0.00 79 1004.7
20260506195838 52 112 0.0 6.0 0.00 2.97 0.00 79 1004.6
20260506195338 53 45 0.0 0.0 0.00 2.97 0.00 79 1004.5
20260506194838 53 67 0.0 2.0 0.00 2.97 0.00 79 1004.4
20260506194338 53 180 0.0 5.0 0.00 2.97 0.00 79 1004.4
20260506193838 53 90 2.0 9.0 0.00 2.97 0.00 79 1004.2
20260506193338 54 90 9.0 9.0 0.00 2.97 0.00 79 1004.0
20260506192838 54 45 0.0 12.0 0.00 2.97 0.00 79 1003.9
20260506192338 54 135 6.0 9.0 0.00 2.97 0.00 79 1004.1
20260506191838 54 112 5.0 10.0 0.00 2.97 0.00 79 1004.0
20260506191338 54 157 0.0 5.0 0.00 2.97 0.00 79 1003.9
20260506190838 54 180 0.0 0.0 0.00 2.97 0.00 79 1003.7
20260506190338 54 180 0.0 0.0 0.00 2.97 0.00 79 1003.8
20260506185838 54 112 0.0 1.0 0.00 2.97 0.00 79 1003.7
20260506185446 54 112 0.0 5.0 0.00 2.97 0.00 79 1003.6
20260506185338 54 112 0.0 5.0 0.00 2.97 0.00 79 1003.6
20260506184838 54 112 0.0 9.0 0.00 2.97 0.00 79 1003.7
20260506184338 55 135 9.0 10.0 0.00 2.97 0.00 79 1003.6
20260506183838 55 67 9.0 10.0 0.00 2.97 0.00 79 1003.6
20260506183338 55 90 0.0 9.0 0.00 2.97 0.00 78 1003.4
20260506182838 55 112 6.0 17.0 0.00 2.97 0.00 78 1003.3
20260506182415 55 135 6.0 9.0 0.00 2.97 0.00 78 1003.4
20260506182338 55 135 6.0 9.0 0.00 2.97 0.00 78 1003.4
20260506181838 55 157 5.0 15.0 0.00 2.97 0.00 78 1003.3
20260506181338 55 157 10.0 10.0 0.00 2.97 0.00 78 1003.3
20260506180838 56 135 6.0 9.0 0.00 2.97 0.00 78 1003.3
20260506180338 56 157 6.0 8.0 0.00 2.97 0.00 78 1003.2
20260506175838 56 90 4.0 6.0 0.00 2.97 0.00 78 1003.1
20260506175410 56 112 0.0 6.0 0.00 2.97 0.00 77 1003.3
20260506175338 56 112 0.0 6.0 0.00 2.97 0.00 77 1003.3
20260506174838 56 67 0.0 6.0 0.00 2.97 0.00 77 1003.1
20260506174338 56 135 0.0 6.0 0.00 2.97 0.00 77 1003.1
20260506173838 57 135 0.0 10.0 0.00 2.97 0.00 77 1003.1
20260506173338 57 135 8.0 8.0 0.00 2.97 0.00 76 1003.0
20260506172838 57 135 0.0 9.0 0.00 2.97 0.00 76 1002.9
20260506172338 57 135 0.0 4.0 0.00 2.97 0.00 76 1002.8
20260506171838 57 112 0.0 6.0 0.00 2.97 0.00 76 1002.6
20260506171338 57 112 0.0 8.0 0.00 2.97 0.00 76 1002.6
20260506170838 57 112 0.0 11.0 0.00 2.97 0.00 76 1002.7
20260506170338 57 90 0.0 14.0 0.00 2.97 0.00 76 1002.6
20260506165838 57 90 14.0 18.0 0.00 2.97 0.00 76 1002.5
20260506165338 57 112 0.0 16.0 0.00 2.97 0.00 77 1002.6
20260506164838 57 135 10.0 11.0 0.00 2.97 0.00 77 1002.6
20260506164338 57 157 4.0 12.0 0.00 2.97 0.00 78 1002.6
20260506163838 56 157 6.0 10.0 0.00 2.97 0.00 78 1002.4
20260506163338 57 67 0.0 12.0 0.00 2.97 0.00 78 1002.4
20260506162838 57 112 1.0 7.0 0.00 2.97 0.00 77 1002.5
20260506162513 57 112 5.0 10.0 0.00 2.97 0.00 76 1002.5
20260506162338 57 112 4.0 10.0 0.00 2.97 0.00 76 1002.6
20260506161838 57 112 5.0 10.0 0.00 2.97 0.00 76 1002.5
20260506161338 57 90 9.0 13.0 0.00 2.97 0.00 76 1002.5
20260506160838 57 112 0.0 11.0 0.00 2.97 0.00 76 1002.6
20260506160339 57 90 8.0 8.0 0.00 2.97 0.00 76 1002.6
20260506155838 57 135 5.0 12.0 0.00 2.97 0.00 76 1002.6
20260506155338 57 112 8.0 8.0 0.00 2.97 0.00 76 1002.7
20260506154838 57 135 7.0 10.0 0.00 2.97 0.00 77 1002.6
20260506154338 57 112 9.0 9.0 0.00 2.97 0.00 77 1002.6
20260506153838 57 112 0.0 7.0 0.00 2.97 0.00 78 1002.6
20260506153338 57 112 2.0 8.0 0.00 2.97 0.00 78 1002.6
20260506152838 57 112 8.0 8.0 0.00 2.97 0.00 78 1002.7
20260506152338 57 67 4.0 10.0 0.00 2.97 0.00 78 1002.6
20260506151838 57 112 0.0 5.0 0.00 2.97 0.00 78 1002.8
20260506151338 56 112 0.0 7.0 0.00 2.97 0.00 78 1002.7
20260506150838 56 135 7.0 9.0 0.00 2.97 0.00 78 1002.9
20260506150338 56 90 9.0 9.0 0.00 2.97 0.00 79 1002.9
20260506145838 55 112 6.0 7.0 0.00 2.97 0.00 79 1002.8
20260506145338 55 90 7.0 9.0 0.00 2.97 0.00 79 1002.8
20260506144838 55 90 2.0 10.0 0.00 2.97 0.00 79 1002.8
20260506144338 55 90 0.0 7.0 0.00 2.97 0.00 79 1002.9
20260506143838 55 135 0.0 5.0 0.00 2.97 0.00 79 1002.9
20260506143338 55 112 5.0 7.0 0.00 2.97 0.00 79 1003.0
20260506142838 55 157 0.0 0.0 0.00 2.97 0.00 79 1003.0
20260506142338 55 67 0.0 0.0 0.00 2.97 0.00 79 1003.0
20260506141838 55 67 0.0 0.0 0.00 2.97 0.00 79 1003.1
20260506141338 55 90 0.0 3.0 0.00 2.97 0.00 79 1003.1
20260506140838 54 112 0.0 4.0 0.00 2.97 0.00 79 1003.2
20260506140338 54 67 0.0 1.0 0.00 2.97 0.00 79 1003.4
20260506135838 54 157 0.0 0.0 0.02 2.97 0.00 79 1003.6
20260506135338 54 157 0.0 0.0 0.02 2.97 0.00 79 1003.6
20260506134838 54 180 0.0 0.0 0.02 2.97 0.00 78 1003.7
20260506134338 54 67 0.0 0.0 2.85 2.97 0.00 78 1003.8
20260506133838 55 292 0.0 0.0 2.91 2.97 0.00 78 1003.7
20260506133338 55 45 0.0 9.0 2.91 2.97 0.00 78 1003.7
20260506132838 54 45 0.0 7.0 2.91 2.97 0.00 78 1003.8
20260506132409 54 67 0.0 7.0 2.91 2.97 0.00 79 1004.0
20260506132338 54 67 0.0 7.0 2.91 2.97 0.00 79 1004.0
20260506131838 54 45 7.0 9.0 2.91 2.97 0.00 79 1004.0
20260506131338 54 22 2.0 6.0 2.91 2.97 0.00 79 1003.9
20260506130838 54 45 4.0 6.0 2.91 2.97 0.00 79 1003.8
20260506130338 54 67 0.0 2.0 2.89 2.95 0.00 78 1003.9
20260506125838 54 90 0.0 0.0 2.89 2.95 0.00 78 1003.8
20260506125338 55 90 0.0 0.0 2.89 2.95 0.00 77 1003.8
20260506124838 55 180 0.0 8.0 1.38 1.44 0.00 77 1004.0
20260506124338 57 202 6.0 11.0 0.00 0.06 0.00 77 1003.7
20260506123838 57 157 0.0 14.0 0.00 0.06 0.00 77 1003.6
20260506123338 57 112 4.0 20.0 0.00 0.06 0.00 77 1003.1
20260506122838 57 135 12.0 20.0 0.00 0.06 0.00 76 1002.8
20260506122338 57 112 14.0 21.0 0.00 0.06 0.00 76 1002.6
20260506121838 58 67 4.0 17.0 0.00 0.06 0.00 75 1002.7
20260506121338 59 67 17.0 24.0 0.00 0.06 0.00 74 1002.8
20260506120838 60 45 9.0 24.0 0.00 0.06 0.00 74 1002.8
20260506120338 59 135 4.0 24.0 0.00 0.06 0.00 73 1002.8
20260506115838 59 67 21.0 23.0 0.00 0.06 0.00 73 1002.6
20260506115339 59 67 0.0 19.0 0.00 0.06 0.00 72 1002.7
20260506114839 60 90 11.0 25.0 0.00 0.06 0.00 71 1002.6
20260506114338 60 135 5.0 20.0 0.00 0.06 0.00 71 1002.5